GW4256 Weather Reports


time (UTC)temp
C
wind
direction
speed
KPH
gust
KPH
rain 1hr
cm
rain 24hr
cm
rain mn
cm
humidity
%
barometer
mb
20260906114524 18 117 0.0 0.0 0.00 0.10 0.00 95 1016.4
20260906113014 18 117 0.0 0.0 0.00 0.10 0.00 95 1016.3
20260906111524 18 163 0.0 0.0 0.00 0.10 0.00 95 1016.2
20260906110026 18 163 0.0 0.0 0.00 0.10 0.00 95 1016.1
20260906104529 17 163 0.0 0.0 0.00 0.10 0.00 95 1015.8
20260906103011 18 163 0.0 0.0 0.00 0.10 0.00 95 1015.6
20260906101514 17 163 0.0 0.0 0.00 0.10 0.00 95 1015.5
20260906100026 17 163 0.0 0.0 0.00 0.10 0.00 95 1015.4
20260906094529 17 163 0.0 0.0 0.00 0.10 0.00 95 1015.4
20260906093033 17 110 0.0 0.0 0.00 0.10 0.00 94 1015.2
20260906091517 17 110 0.0 0.0 0.00 0.10 0.00 94 1015.3
20260906090021 17 110 0.0 0.0 0.00 0.10 0.00 94 1015.2
20260906084532 17 110 0.0 0.0 0.00 0.10 0.00 94 1015.2
20260906083027 18 110 0.0 0.0 0.00 0.10 0.00 94 1015.1
20260906081538 18 110 0.0 0.0 0.00 0.10 0.00 94 1014.9
20260906080016 18 174 0.0 0.0 0.00 0.10 0.00 94 1014.7
20260906074501 18 174 0.0 0.0 0.00 0.10 0.00 94 1014.8
20260906073006 18 174 0.0 3.2 0.00 0.10 0.00 94 1014.9
20260906071508 18 174 0.0 3.2 0.00 0.10 0.00 94 1014.7
20260906070017 18 41 0.0 0.0 0.00 0.10 0.00 94 1014.7
20260906064524 18 41 0.0 3.2 0.00 0.10 0.00 94 1015.0
20260906063003 18 154 0.0 0.0 0.00 0.10 0.00 94 1015.1
20260906061508 18 154 0.0 3.2 0.00 0.10 0.00 94 1015.1
20260906060013 18 29 0.0 3.2 0.00 0.10 0.00 94 1015.1
20260906054519 18 29 0.0 3.2 0.00 0.10 0.00 94 1015.3
20260906053031 18 29 0.0 3.2 0.00 0.10 0.00 94 1015.3
20260906051504 18 29 0.0 3.2 0.00 0.10 0.00 94 1015.4
20260906050013 18 174 0.0 3.2 0.00 0.10 0.00 93 1015.4
20260906044516 18 7 1.6 3.2 0.00 0.10 0.00 93 1015.3
20260906043027 18 25 0.0 3.2 0.00 0.10 0.00 93 1015.3
20260906041530 18 42 0.0 3.2 0.00 0.10 0.00 92 1015.5
20260906040019 18 43 0.0 1.6 0.00 0.10 0.00 92 1015.5
20260906034514 18 36 0.0 3.2 0.00 0.10 0.10 92 1015.5
20260906033020 18 28 0.0 3.2 0.00 0.10 0.10 92 1015.7
20260906031544 18 11 1.6 3.2 0.00 0.10 0.10 92 1015.7
20260906030029 18 156 0.0 3.2 0.00 0.10 0.10 91 1015.8
20260906024512 19 44 0.0 3.2 0.00 0.10 0.10 90 1015.8
20260906023016 19 360 1.6 3.2 0.00 0.10 0.10 90 1015.5
20260906021527 20 13 0.0 3.2 0.00 0.10 0.10 89 1015.4
20260906020035 20 13 0.0 0.0 0.00 0.10 0.10 88 1015.5
20260906014531 20 78 0.0 3.2 0.00 0.10 0.10 87 1015.3
20260906013012 20 359 0.0 0.0 0.00 0.10 0.10 87 1015.0
20260906011523 21 43 0.0 4.8 0.00 0.10 0.10 87 1014.6
20260906010028 21 337 1.6 6.4 0.00 0.10 0.10 86 1014.6
20260906004530 21 347 1.6 8.0 0.00 0.10 0.10 85 1014.4
20260906003010 21 347 1.6 6.4 0.00 0.10 0.10 85 1014.3
20260906001518 22 348 1.6 8.0 0.00 0.10 0.10 85 1014.1
20260906000026 22 356 1.6 6.4 0.00 0.10 0.10 86 1014.1
20260905234533 22 5 1.6 6.4 0.00 0.10 0.10 1014.0
20260905233009 23 24 1.6 3.2 0.00 0.10 0.10 84 1013.9
20260905231517 23 20 1.6 4.8 0.00 0.10 0.10 81 1013.9
20260905230019 24 360 1.6 3.2 0.00 0.10 0.10 79 1014.1
20260905224524 25 31 1.6 3.2 0.00 0.10 0.10 75 1014.0
20260905223028 25 357 1.6 3.2 0.00 0.10 0.10 74 1013.8
20260905221511 26 18 1.6 3.2 0.00 0.20 0.10 71 1013.6
20260905220017 26 330 1.6 3.2 0.00 0.38 0.10 68 1013.3
20260905214527 26 6 0.0 0.0 0.00 0.66 0.10 73 1013.3
20260905213028 26 352 0.0 3.2 0.00 0.97 0.10 71 1013.3
20260905211532 26 315 0.0 3.2 0.00 0.97 0.10 70 1013.1
20260905210016 26 297 1.6 3.2 0.00 0.97 0.10 65 1013.1
20260905204521 26 297 1.6 3.2 0.00 0.97 0.10 65 1013.0
20260905203023 26 278 1.6 3.2 0.00 0.97 0.10 65 1012.9
20260905201532 26 1 1.6 6.4 0.00 0.97 0.10 66 1012.9
20260905200038 27 78 4.8 8.0 0.00 0.97 0.10 65 1013.0
20260905194517 27 303 4.8 8.0 0.00 0.97 0.10 65 1013.2
20260905193026 27 297 1.6 6.4 0.00 0.97 0.10 66 1013.5
20260905191530 27 72 1.6 6.4 0.00 0.97 0.10 65 1013.5
20260905190040 28 226 0.0 4.8 0.00 0.97 0.10 66 1013.8
20260905184535 28 341 3.2 9.7 0.00 0.97 0.10 64 1014.4
20260905183022 27 294 3.2 9.7 0.00 0.97 0.10 67 1014.6
20260905181533 28 326 0.0 3.2 0.00 0.97 0.10 71 1015.0
20260905180011 26 66 3.2 6.4 0.00 0.97 0.10 75 1015.1
20260905174516 26 195 0.0 3.2 0.00 0.97 0.10 74 1015.2
20260905173020 25 321 1.6 4.8 0.00 0.97 0.10 77 1015.4
20260905171539 24 323 3.2 8.0 0.00 0.97 0.10 80 1015.7
20260905170011 23 326 1.6 9.7 0.00 0.97 0.10 84 1015.7
20260905164509 22 35 0.0 4.8 0.00 0.97 0.10 91 1015.7
20260905163018 21 45 0.0 3.2 0.00 0.97 0.10 95 1015.8
20260905161526 21 262 0.0 4.8 0.00 0.97 0.10 96 1015.7
20260905160046 21 176 1.6 4.8 0.00 0.97 0.10 96 1015.8
20260905154510 20 201 0.0 3.2 0.00 0.97 0.10 97 1016.8
20260905153016 20 61 0.0 3.2 0.03 0.97 0.10 96 1017.1
20260905151523 20 359 0.0 3.2 0.08 0.97 0.10 96 1017.3
20260905150030 19 255 0.0 0.0 0.10 0.97 0.10 96 1017.2
20260905144531 19 179 0.0 3.2 0.10 0.97 0.10 96 1017.3
20260905143015 19 150 0.0 0.0 0.08 0.94 0.08 96 1017.3
20260905141524 19 124 0.0 3.2 0.03 0.89 0.03 96 1018.2
20260905140028 19 214 0.0 3.2 0.00 0.86 0.00 96 1017.4
20260905134529 19 100 0.0 0.0 0.00 0.86 0.00 96 1017.1
20260905133031 19 160 0.0 0.0 0.00 0.86 0.00 96 1016.6
20260905131518 19 132 0.0 3.2 0.00 0.86 0.00 96 1016.3
20260905130025 19 95 0.0 0.0 0.00 0.86 0.00 96 1016.2
20260905124527 18 93 0.0 3.2 0.00 0.86 0.00 96 1015.9
20260905123031 18 91 0.0 3.2 0.00 0.86 0.00 96 1016.0
20260905121531 17 113 0.0 3.2 0.00 0.86 0.00 96 1016.1
20260905120036 17 148 0.0 3.2 0.00 0.86 0.00 96 1016.3